map of HEL home
HEL - Airport
Location
City:  Helsinki, Uusimaa (Nyland), Finland
Name:Vantaa
ICAO:EFHK
IATA:HEL

Details
Type:Airport (Aerodrome, Airfield)
Latitude:6019'02"N (60.317222)
Longitude:2457'48"E (24.963333)
Elevation:179 ft (55 m)
Variation:9.05E (WMM2015 magnetic declination)
0.16 annual change
Runways:3
Longest:11286 × 197 ft (3440 × 60 m), paved

Time
Time Zone:UTC+2 (DST+3)
Local Time:

Weather
METAR:EFHK 210550Z 04004KT 020V090 9999 SCT005 BKN018 FEW030CB 20/19 Q1005 TEMPO BKN013 FEW030CB
TAF:EFHK 210531Z 2106/2206 01005KT 9999 SCT003 BKN020
TEMPO 2106/2108 BKN013 FEW030CB
TEMPO 2108/2112 7000 SHRA SCT030CB PROB40 2108/2112 5000 TSRA PROB30 2120/2203 1100 BCFG BKN003

Related Locations
Nearby:
Farthest:NZTB: 11012 mi / 17722 km
Terra Nova Bay [Mario Zucchelli Station], AQ

Find:

   beyond  
but within

Other Information
Maps:
NOTAMs:
Links:
Sources:

  
  • flag of Finland
  

Sectional Chart

Flight Planning
at skyvector.com

Satellite Image

Google Maps Satellite view

 

Copyright © 2004-2018 Karl L. Swartz. All rights reserved.
The Great Circle Mapper name and logo are trademarks of the Great Circle Mapper.
All other trademarks mentioned herein belong to their respective owners.
Please see credits for attibutions and further copyright information.

  Follow gcmap on Facebook Follow gcmap on Twitter Follow gcmap on Google+ GCmap on LinkedIn

hCard Microformat

Geo Microformat